SCP
0 0 0 0 0 0 0 0 0 0 0 0 0 0 0 0 0 0 0 0 0 0 0 0 0 0 0 0 0 1 3 3 3 2 2 2 2 1 2 1 1 1 1 2
0 0 0 0 0 0 0 0 0 0 0 0 0 0 0 0 0 0 0 0 0 0 0 0 0 0 0 0 0 0 2 3 3 4 3 4 3 3 2 2 1 1 1 1
0 0 0 0 0 0 0 0 0 0 0 0 0 -0 -0 0 0 0 0 0 0 0 0 0 0 0 0 0 0 0 1 2 4 5 5 4 5 3 3 2 2 1 2 2
0 0 0 0 0 0 0 0 0 0 0 0 0 -0 -0 0 0 0 0 0 0 0 0 0 0 0 0 0 0 0 1 1 4 6 7 6 6 7 4 4 4 2 2 3
0 0 0 0 0 0 0 0 0 0 0 0 0 0 0 0 0 0 0 0 0 0 0 0 0 0 0 0 0 0 0 0 1 5 6 6 6 5 3 3 3 2 2 2
0 0 0 0 0 0 0 0 0 0 0 0 0 0 0 0 0 0 0 0 0 0 0 0 0 0 0 0 0 0 0 0 0 1 2 4 5 3 3 2 2 3 2 2
0 0 0 0 0 0 0 0 0 0 0 0 0 0 0 0 0 0 0 0 0 0 0 0 0 0 0 0 0 0 0 0 0 0 0 0 0 0 0 0 0 0 1 1
0 0 0 0 0 0 0 0 0 0 0 0 0 0 0 0 0 0 0 0 0 0 0 0 0 0 0 0 0 0 0 0 0 0 0 0 0 0 0 0 0 0 0 0
0 0 0 0 0 0 0 0 0 0 0 0 0 0 0 0 0 0 0 0 0 0 0 0 0 0 0 0 0 0 0 0 0 0 0 0 0 0 0 0 0 0 0 0
0 0 0 0 0 0 0 0 0 0 0 0 0 0 0 0 0 0 0 -0 0 0 0 0 0 0 0 0 0 0 0 0 0 0 0 0 0 0 0 0 0 0 0 0
0 0 0 0 0 0 0 0 0 0 0 0 0 0 0 0 0 0 0 -0 0 0 0 0 -0 -0 0 0 0 0 0 0 0 0 0 0 0 0 0 0 0 0 0 0
0 0 0 0 0 0 0 0 0 0 0 0 0 0 0 0 0 0 -0 -0 -0 0 0 -0 0 0 0 0 0 0 0 0 0 0 0 0 0 0 0 0 0 0 0 0
0 0 0 0 0 0 0 0 0 0 0 0 0 0 0 0 0 -0 -0 -0 -0 0 0 0 0 0 0 0 0 0 0 -0 -0 -0 -0 0 0 0 0 0 0 0 0 0
0 0 0 0 0 0 0 0 0 0 0 0 0 0 0 0 0 0 0 0 0 0 0 0 0 0 0 0 0 0 0 0 -0 0 0 0 0 0 0 0 0 0 0 0
0 0 0 0 0 0 0 0 0 0 0 0 0 0 0 0 0 0 0 0 0 0 0 0 0 0 0 0 0 0 0 0 0 0 0 0 0 0 0 0 0 0 0 0
0 0 0 0 0 0 0 0 0 0 0 0 0 0 0 0 0 0 0 0 0 0 0 0 0 0 0 0 0 0 0 0 0 0 0 0 0 0 0 0 0 0 0 0
0 0 0 0 0 0 0 0 0 0 0 0 0 0 0 0 0 0 0 0 0 0 0 0 0 0 0 0 0 0 0 0 0 0 0 0 0 0 0 0 0 0 0 0
0 0 0 0 0 0 0 0 0 0 0 0 0 0 0 0 0 0 0 0 -0 -0 0 0 0 -0 0 0 0 0 0 0 0 0 0 0 0 0 0 0 0 0 0 0
0 0 0 0 0 0 0 0 0 0 0 0 0 0 0 0 0 0 0 0 0 0 0 0 0 -0 -0 -0 -0 -0 0 0 0 0 0 0 0 0 0 0 0 0 0 0
0 0 0 0 0 0 0 0 0 0 0 0 0 0 0 0 0 -0 0 0 0 0 0 0 0 0 0 0 -0 -0 -0 -0 0 0 0 0 0 0 0 0 0 0 0 0
0 0 0 0 0 0 0 0 0 0 0 0 0 0 0 0 0 0 0 0 0 0 0 0 0 0 0 0 0 0 0 0 0 0 0 0 0 0 0 0 0 0 0 0
0 0 0 0 0 0 0 0 0 0 0 0 0 0 0 0 0 0 0 0 0 0 0 0 0 0 -0 0 0 0 0 0 0 0 0 0 0 0 0 0 0 0 0 0
0 0 0 0 0 0 0 0 0 0 0 0 0 0 0 0 0 0 -0 0 0 0 0 0 0 0 0 0 0 0 0 0 0 0 0 0 0 0 0 0 0 0 0 0
0 0 0 0 0 0 -0 0 0 0 0 0 0 0 0 0 0 0 0 0 0 0 0 0 0 0 0 0 0 0 0 0 0 0 0 0 0 0 0 0 0 0 0 0
0 0 0 -0 -0 -0 0 0 0 0 0 0 0 0 0 0 0 0 0 0 0 -0 -0 0 0 -0 0 0 0 -0 0 0 0 0 0 0 0 0 0 0 0 0 0 0
0 0 -0 0 -0 0 0 0 0 0 0 0 -0 0 0 0 0 0 0 0 -0 -0 -0 -0 -0 0 -0 -0 -0 -0 0 0 0 0 0 0 0 0 0 0 0 0 0 0
Wind_Speed_500mb
4 6 12 17 15 10 6 8 10 14 23 7 21 23 22 36 35 42 51 57 57 60 64 64 67 59 64 65 84 89 77 73 72 72 77 78 78 77 76 63 60 67 66 62
8 12 21 12 9 10 10 8 13 14 15 10 18 32 18 12 16 37 40 47 57 63 63 65 61 55 59 64 72 95 87 85 76 75 77 83 82 77 70 62 63 51 63 82
13 17 11 12 7 8 9 8 10 16 8 10 16 28 8 6 18 39 43 44 49 59 63 62 53 55 60 70 71 85 94 89 86 82 81 83 81 71 65 62 60 60 62 60
11 10 14 5 14 12 11 14 13 8 2 9 6 34 19 14 18 10 41 54 56 55 57 58 48 41 53 67 77 80 90 93 89 82 81 84 84 80 70 68 64 59 61 63
17 9 6 10 18 14 18 10 14 6 8 3 10 16 10 13 23 24 28 50 64 70 67 69 58 63 57 54 61 71 86 91 88 82 82 78 75 72 70 69 68 68 62 59
13 4 12 16 4 10 4 5 6 8 4 8 17 16 1 4 13 12 27 57 65 78 73 69 60 49 53 56 60 65 75 84 80 77 74 70 68 66 65 65 66 65 64 62
10 20 10 10 6 3 9 10 7 7 6 25 8 9 20 19 27 13 22 55 64 63 69 67 66 56 53 58 63 68 72 81 80 74 70 68 64 58 52 48 48 49 57 65
9 17 13 8 11 14 9 13 9 13 17 30 6 12 11 15 18 18 34 40 57 46 46 49 57 59 63 64 67 70 78 78 75 73 65 56 49 42 39 39 40 40 42 45
7 9 5 4 5 10 8 8 3 2 3 6 9 13 14 21 14 14 33 44 55 65 50 41 43 49 65 71 69 76 85 84 77 62 46 35 32 30 31 34 38 39 43 44
6 5 3 3 9 9 7 9 6 5 7 11 8 13 19 19 16 18 22 37 61 68 44 26 28 30 31 38 53 70 83 75 60 46 35 26 17 16 22 26 26 25 28 33
6 7 8 4 8 14 3 2 6 4 7 7 12 10 10 16 9 15 24 40 55 59 51 41 19 33 24 17 37 63 65 51 44 36 31 30 17 10 16 21 19 17 20 22
1 8 9 19 3 5 5 14 12 8 8 8 7 29 18 14 6 14 27 47 61 68 55 43 26 8 16 26 11 41 51 50 45 37 32 31 28 18 25 28 22 24 21 19
5 3 4 11 3 6 7 10 9 6 6 14 11 19 8 14 20 35 31 48 57 64 62 48 38 20 19 9 26 14 30 52 55 57 62 56 44 37 36 37 35 34 32 27
5 9 18 21 16 8 8 11 12 12 6 12 27 42 39 34 17 19 30 39 50 58 55 51 35 34 26 11 36 43 34 23 44 64 65 63 58 49 42 45 48 45 43 40
12 11 9 10 9 7 10 18 17 18 28 17 47 32 42 13 11 16 34 38 44 51 55 42 33 29 27 20 15 59 67 45 41 33 54 69 64 62 56 52 52 50 49 48
2 6 1 8 12 17 24 30 27 30 22 29 34 43 21 7 15 15 26 38 49 55 56 44 38 32 31 31 26 19 26 29 40 37 23 37 59 69 64 60 58 55 53 53
7 8 3 12 6 10 17 25 25 8 11 12 14 10 4 8 11 16 36 52 61 59 58 45 45 46 46 46 44 32 22 18 30 44 34 19 29 47 58 56 60 59 61 60
11 10 6 7 5 9 8 0 7 8 15 11 14 11 8 9 26 44 57 58 49 51 54 51 57 66 72 73 65 56 49 43 41 35 49 43 36 25 28 47 56 60 59 57
12 10 3 4 6 13 8 3 3 4 13 17 18 9 19 30 35 48 44 37 45 55 65 70 74 80 88 88 81 73 71 64 60 55 49 43 41 46 41 40 41 45 51 54
14 7 7 4 6 9 5 4 6 2 20 8 3 15 26 22 21 35 50 61 76 78 76 76 74 76 76 79 81 79 76 71 74 70 68 60 57 53 54 56 54 55 60 63
5 5 11 8 7 13 5 4 10 3 10 14 25 28 32 25 41 75 82 78 79 78 77 78 81 79 84 85 77 83 84 92 87 83 81 79 76 74 71 68 70 68 68 69
8 6 5 3 5 12 2 8 3 9 52 54 41 48 62 72 81 76 88 84 85 81 83 88 83 80 72 74 73 82 87 89 93 90 88 86 82 81 83 83 85 85 83 83
3 4 4 11 10 4 9 19 42 38 46 47 59 73 78 84 81 83 93 90 76 85 91 84 84 92 92 84 89 90 90 75 76 74 80 80 79 82 80 79 85 86 85 87
0 3 4 7 3 6 45 48 29 55 56 69 74 77 77 87 91 91 89 86 69 92 84 78 84 82 82 79 80 83 71 67 69 72 70 68 68 72 72 74 78 73 75 79
5 5 3 10 14 36 10 36 66 75 76 73 74 81 90 95 99 87 96 82 78 83 90 66 74 76 75 75 76 73 73 71 73 73 73 74 75 72 66 66 66 76 83 81
3 3 3 6 24 21 51 75 75 71 69 79 88 98 98 91 90 95 100 78 88 71 75 79 66 77 75 72 73 72 64 69 73 73 70 67 63 59 54 50 57 59 62 62
Wind_Direction_500mb
43 92 217 220 199 198 219 204 228 258 267 246 264 273 276 268 277 281 287 298 299 299 301 296 298 279 254 252 236 226 228 227 221 225 224 227 230 232 233 228 217 221 222 247
25 247 230 202 187 203 212 247 264 272 261 172 274 282 246 227 243 260 271 286 298 303 305 300 294 285 257 255 241 225 227 225 225 225 226 227 229 231 232 228 213 216 233 242
172 231 109 175 215 205 230 192 240 227 310 297 290 289 276 229 228 263 271 272 280 286 292 303 301 292 269 250 246 230 227 226 225 226 225 226 228 231 229 230 225 226 231 236
226 241 228 212 249 150 280 205 230 227 107 264 357 290 301 258 267 251 268 276 273 273 282 287 290 292 290 260 244 232 226 227 225 227 226 226 228 228 228 233 237 243 241 242
235 174 159 206 232 148 232 181 193 216 222 25 275 279 282 343 293 269 280 283 284 280 281 276 273 282 281 283 259 242 230 224 223 224 225 225 228 231 233 238 241 245 243 245
239 193 176 211 251 186 93 106 52 48 120 217 238 235 64 266 245 292 309 300 292 291 289 284 275 271 268 265 264 254 227 221 219 219 220 223 227 231 239 242 244 242 241 243
301 259 233 190 209 36 88 74 310 313 265 269 238 277 258 276 287 306 318 312 303 293 295 288 269 266 266 263 258 251 225 213 211 210 211 213 215 215 220 224 230 232 236 237
196 284 177 181 180 185 173 161 178 246 271 284 165 252 260 263 270 312 316 338 347 340 324 289 273 272 272 271 251 244 226 212 210 208 207 206 209 215 227 237 242 241 238 236
185 269 338 65 127 132 180 184 134 347 245 319 223 297 310 272 275 289 326 339 335 336 340 322 305 277 267 264 251 235 222 210 206 201 200 209 219 231 246 254 255 251 241 236
227 281 272 128 117 57 144 142 65 13 298 267 257 272 264 282 291 315 315 328 324 327 333 1 358 339 316 272 246 230 208 199 195 192 194 199 215 236 245 246 237 234 229 225
155 146 279 22 204 187 87 132 70 136 168 225 306 256 226 255 290 313 320 327 328 326 319 311 359 23 32 290 240 198 188 189 191 191 197 200 191 193 217 221 224 212 205 205
128 157 223 219 318 302 154 192 158 156 235 224 229 274 246 287 340 343 330 332 339 336 324 303 303 337 19 21 238 193 193 193 199 218 205 208 197 187 204 208 210 209 213 221
183 251 292 322 24 348 201 197 181 125 96 215 244 263 284 319 318 341 327 330 345 343 342 322 299 309 290 270 25 22 248 231 214 214 220 217 207 199 204 206 212 217 216 224
191 198 225 248 252 165 194 212 198 163 159 244 237 276 279 286 294 309 318 331 338 346 345 348 325 301 308 307 234 307 327 317 255 247 236 228 223 217 214 214 219 224 226 228
170 219 207 257 256 216 235 240 225 207 240 224 275 264 280 265 246 281 315 325 331 339 333 339 351 4 0 331 273 243 277 295 313 269 247 244 232 228 227 225 227 236 235 236
202 245 240 261 267 256 255 253 239 240 251 256 261 271 278 239 284 291 317 326 321 316 320 310 322 326 339 344 352 331 263 279 295 287 265 246 242 236 234 234 235 238 232 223
176 160 71 277 262 312 279 251 238 202 231 228 235 251 198 276 310 317 316 314 306 305 308 291 296 308 314 319 322 321 315 266 245 262 274 271 242 242 238 234 231 227 224 227
164 144 148 263 10 237 257 337 132 226 251 243 271 264 279 304 300 295 291 291 296 302 304 288 291 296 295 300 300 298 291 283 281 280 255 261 253 246 249 236 235 231 230 232
176 129 195 181 206 298 289 117 92 19 279 240 254 282 288 301 310 285 295 284 281 285 286 284 288 295 296 294 294 293 284 276 275 275 273 268 250 248 242 244 240 239 242 248
97 96 142 139 181 242 254 183 360 80 276 99 28 279 287 300 291 290 300 293 287 289 288 290 291 290 288 283 284 282 281 278 271 269 271 269 264 258 249 250 250 250 255 260
129 162 224 232 251 282 259 330 348 226 286 258 287 281 292 282 276 288 294 288 284 281 281 280 287 289 283 281 277 274 276 277 279 274 270 268 266 263 259 255 252 254 254 254
191 159 236 259 256 276 31 354 182 275 303 306 292 302 302 290 290 288 294 282 283 273 274 274 276 286 282 266 264 272 273 277 278 275 271 268 266 263 264 264 260 257 257 258
234 180 210 190 228 235 321 266 296 317 298 300 300 299 297 291 291 289 299 285 281 280 272 266 266 275 285 265 265 272 273 266 270 270 266 264 265 266 264 259 259 259 256 256
304 88 242 340 333 303 312 309 322 320 305 301 299 298 298 298 290 290 291 287 288 291 271 271 262 261 268 259 263 269 259 256 258 260 256 257 261 267 262 260 254 253 250 246
239 7 245 251 288 317 302 312 313 309 307 307 308 306 301 297 296 291 300 283 289 289 284 268 282 266 265 256 254 265 255 254 251 249 251 256 260 254 258 254 251 247 245 247
166 336 312 284 324 298 301 309 312 309 313 311 309 309 306 307 306 303 303 295 300 286 285 284 264 270 269 249 255 265 246 243 251 249 248 250 247 235 247 249 249 245 247 250
Wind_Speed_850mb
4 6 12 17 15 10 6 8 10 14 23 7 21 23 22 36 35 42 51 57 57 60 64 64 67 59 64 65 84 89 77 73 72 72 77 78 78 77 76 63 60 67 66 62
8 12 21 12 9 10 10 8 13 14 15 10 18 32 18 12 16 37 40 47 57 63 63 65 61 55 59 64 72 95 87 85 76 75 77 83 82 77 70 62 63 51 63 82
13 17 11 12 7 8 9 8 10 16 8 10 16 28 8 6 18 39 43 44 49 59 63 62 53 55 60 70 71 85 94 89 86 82 81 83 81 71 65 62 60 60 62 60
11 10 14 5 14 12 11 14 13 8 2 9 6 34 19 14 18 10 41 54 56 55 57 58 48 41 53 67 77 80 90 93 89 82 81 84 84 80 70 68 64 59 61 63
17 9 6 10 18 14 18 10 14 6 8 3 10 16 10 13 23 24 28 50 64 70 67 69 58 63 57 54 61 71 86 91 88 82 82 78 75 72 70 69 68 68 62 59
13 4 12 16 4 10 4 5 6 8 4 8 17 16 1 4 13 12 27 57 65 78 73 69 60 49 53 56 60 65 75 84 80 77 74 70 68 66 65 65 66 65 64 62
10 20 10 10 6 3 9 10 7 7 6 25 8 9 20 19 27 13 22 55 64 63 69 67 66 56 53 58 63 68 72 81 80 74 70 68 64 58 52 48 48 49 57 65
9 17 13 8 11 14 9 13 9 13 17 30 6 12 11 15 18 18 34 40 57 46 46 49 57 59 63 64 67 70 78 78 75 73 65 56 49 42 39 39 40 40 42 45
7 9 5 4 5 10 8 8 3 2 3 6 9 13 14 21 14 14 33 44 55 65 50 41 43 49 65 71 69 76 85 84 77 62 46 35 32 30 31 34 38 39 43 44
6 5 3 3 9 9 7 9 6 5 7 11 8 13 19 19 16 18 22 37 61 68 44 26 28 30 31 38 53 70 83 75 60 46 35 26 17 16 22 26 26 25 28 33
6 7 8 4 8 14 3 2 6 4 7 7 12 10 10 16 9 15 24 40 55 59 51 41 19 33 24 17 37 63 65 51 44 36 31 30 17 10 16 21 19 17 20 22
1 8 9 19 3 5 5 14 12 8 8 8 7 29 18 14 6 14 27 47 61 68 55 43 26 8 16 26 11 41 51 50 45 37 32 31 28 18 25 28 22 24 21 19
5 3 4 11 3 6 7 10 9 6 6 14 11 19 8 14 20 35 31 48 57 64 62 48 38 20 19 9 26 14 30 52 55 57 62 56 44 37 36 37 35 34 32 27
5 9 18 21 16 8 8 11 12 12 6 12 27 42 39 34 17 19 30 39 50 58 55 51 35 34 26 11 36 43 34 23 44 64 65 63 58 49 42 45 48 45 43 40
12 11 9 10 9 7 10 18 17 18 28 17 47 32 42 13 11 16 34 38 44 51 55 42 33 29 27 20 15 59 67 45 41 33 54 69 64 62 56 52 52 50 49 48
2 6 1 8 12 17 24 30 27 30 22 29 34 43 21 7 15 15 26 38 49 55 56 44 38 32 31 31 26 19 26 29 40 37 23 37 59 69 64 60 58 55 53 53
7 8 3 12 6 10 17 25 25 8 11 12 14 10 4 8 11 16 36 52 61 59 58 45 45 46 46 46 44 32 22 18 30 44 34 19 29 47 58 56 60 59 61 60
11 10 6 7 5 9 8 0 7 8 15 11 14 11 8 9 26 44 57 58 49 51 54 51 57 66 72 73 65 56 49 43 41 35 49 43 36 25 28 47 56 60 59 57
12 10 3 4 6 13 8 3 3 4 13 17 18 9 19 30 35 48 44 37 45 55 65 70 74 80 88 88 81 73 71 64 60 55 49 43 41 46 41 40 41 45 51 54
14 7 7 4 6 9 5 4 6 2 20 8 3 15 26 22 21 35 50 61 76 78 76 76 74 76 76 79 81 79 76 71 74 70 68 60 57 53 54 56 54 55 60 63
5 5 11 8 7 13 5 4 10 3 10 14 25 28 32 25 41 75 82 78 79 78 77 78 81 79 84 85 77 83 84 92 87 83 81 79 76 74 71 68 70 68 68 69
8 6 5 3 5 12 2 8 3 9 52 54 41 48 62 72 81 76 88 84 85 81 83 88 83 80 72 74 73 82 87 89 93 90 88 86 82 81 83 83 85 85 83 83
3 4 4 11 10 4 9 19 42 38 46 47 59 73 78 84 81 83 93 90 76 85 91 84 84 92 92 84 89 90 90 75 76 74 80 80 79 82 80 79 85 86 85 87
0 3 4 7 3 6 45 48 29 55 56 69 74 77 77 87 91 91 89 86 69 92 84 78 84 82 82 79 80 83 71 67 69 72 70 68 68 72 72 74 78 73 75 79
5 5 3 10 14 36 10 36 66 75 76 73 74 81 90 95 99 87 96 82 78 83 90 66 74 76 75 75 76 73 73 71 73 73 73 74 75 72 66 66 66 76 83 81
3 3 3 6 24 21 51 75 75 71 69 79 88 98 98 91 90 95 100 78 88 71 75 79 66 77 75 72 73 72 64 69 73 73 70 67 63 59 54 50 57 59 62 62
Wind_Direction_850mb
43 92 217 220 199 198 219 204 228 258 267 246 264 273 276 268 277 281 287 298 299 299 301 296 298 279 254 252 236 226 228 227 221 225 224 227 230 232 233 228 217 221 222 247
25 247 230 202 187 203 212 247 264 272 261 172 274 282 246 227 243 260 271 286 298 303 305 300 294 285 257 255 241 225 227 225 225 225 226 227 229 231 232 228 213 216 233 242
172 231 109 175 215 205 230 192 240 227 310 297 290 289 276 229 228 263 271 272 280 286 292 303 301 292 269 250 246 230 227 226 225 226 225 226 228 231 229 230 225 226 231 236
226 241 228 212 249 150 280 205 230 227 107 264 357 290 301 258 267 251 268 276 273 273 282 287 290 292 290 260 244 232 226 227 225 227 226 226 228 228 228 233 237 243 241 242
235 174 159 206 232 148 232 181 193 216 222 25 275 279 282 343 293 269 280 283 284 280 281 276 273 282 281 283 259 242 230 224 223 224 225 225 228 231 233 238 241 245 243 245
239 193 176 211 251 186 93 106 52 48 120 217 238 235 64 266 245 292 309 300 292 291 289 284 275 271 268 265 264 254 227 221 219 219 220 223 227 231 239 242 244 242 241 243
301 259 233 190 209 36 88 74 310 313 265 269 238 277 258 276 287 306 318 312 303 293 295 288 269 266 266 263 258 251 225 213 211 210 211 213 215 215 220 224 230 232 236 237
196 284 177 181 180 185 173 161 178 246 271 284 165 252 260 263 270 312 316 338 347 340 324 289 273 272 272 271 251 244 226 212 210 208 207 206 209 215 227 237 242 241 238 236
185 269 338 65 127 132 180 184 134 347 245 319 223 297 310 272 275 289 326 339 335 336 340 322 305 277 267 264 251 235 222 210 206 201 200 209 219 231 246 254 255 251 241 236
227 281 272 128 117 57 144 142 65 13 298 267 257 272 264 282 291 315 315 328 324 327 333 1 358 339 316 272 246 230 208 199 195 192 194 199 215 236 245 246 237 234 229 225
155 146 279 22 204 187 87 132 70 136 168 225 306 256 226 255 290 313 320 327 328 326 319 311 359 23 32 290 240 198 188 189 191 191 197 200 191 193 217 221 224 212 205 205
128 157 223 219 318 302 154 192 158 156 235 224 229 274 246 287 340 343 330 332 339 336 324 303 303 337 19 21 238 193 193 193 199 218 205 208 197 187 204 208 210 209 213 221
183 251 292 322 24 348 201 197 181 125 96 215 244 263 284 319 318 341 327 330 345 343 342 322 299 309 290 270 25 22 248 231 214 214 220 217 207 199 204 206 212 217 216 224
191 198 225 248 252 165 194 212 198 163 159 244 237 276 279 286 294 309 318 331 338 346 345 348 325 301 308 307 234 307 327 317 255 247 236 228 223 217 214 214 219 224 226 228
170 219 207 257 256 216 235 240 225 207 240 224 275 264 280 265 246 281 315 325 331 339 333 339 351 4 0 331 273 243 277 295 313 269 247 244 232 228 227 225 227 236 235 236
202 245 240 261 267 256 255 253 239 240 251 256 261 271 278 239 284 291 317 326 321 316 320 310 322 326 339 344 352 331 263 279 295 287 265 246 242 236 234 234 235 238 232 223
176 160 71 277 262 312 279 251 238 202 231 228 235 251 198 276 310 317 316 314 306 305 308 291 296 308 314 319 322 321 315 266 245 262 274 271 242 242 238 234 231 227 224 227
164 144 148 263 10 237 257 337 132 226 251 243 271 264 279 304 300 295 291 291 296 302 304 288 291 296 295 300 300 298 291 283 281 280 255 261 253 246 249 236 235 231 230 232
176 129 195 181 206 298 289 117 92 19 279 240 254 282 288 301 310 285 295 284 281 285 286 284 288 295 296 294 294 293 284 276 275 275 273 268 250 248 242 244 240 239 242 248
97 96 142 139 181 242 254 183 360 80 276 99 28 279 287 300 291 290 300 293 287 289 288 290 291 290 288 283 284 282 281 278 271 269 271 269 264 258 249 250 250 250 255 260
129 162 224 232 251 282 259 330 348 226 286 258 287 281 292 282 276 288 294 288 284 281 281 280 287 289 283 281 277 274 276 277 279 274 270 268 266 263 259 255 252 254 254 254
191 159 236 259 256 276 31 354 182 275 303 306 292 302 302 290 290 288 294 282 283 273 274 274 276 286 282 266 264 272 273 277 278 275 271 268 266 263 264 264 260 257 257 258
234 180 210 190 228 235 321 266 296 317 298 300 300 299 297 291 291 289 299 285 281 280 272 266 266 275 285 265 265 272 273 266 270 270 266 264 265 266 264 259 259 259 256 256
304 88 242 340 333 303 312 309 322 320 305 301 299 298 298 298 290 290 291 287 288 291 271 271 262 261 268 259 263 269 259 256 258 260 256 257 261 267 262 260 254 253 250 246
239 7 245 251 288 317 302 312 313 309 307 307 308 306 301 297 296 291 300 283 289 289 284 268 282 266 265 256 254 265 255 254 251 249 251 256 260 254 258 254 251 247 245 247
166 336 312 284 324 298 301 309 312 309 313 311 309 309 306 307 306 303 303 295 300 286 285 284 264 270 269 249 255 265 246 243 251 249 248 250 247 235 247 249 249 245 247 250